Theta_e
316 319 319 319 318 317 315 314 317 321 320 322 325 326 326 323 320 318 316 316 311 314 320 316 317 317 314 316 308 302 303 302 301 300 299 297 297 296 296 295 295 294 293 292 292 292 292 293 294 295 296 298 300 301 303 306 308 307 308 311 310 308 312 314 314 314 313 311 310 308 306 303 301 302 303 301 301 301 301 301 302 303 303 304 304 305
314 319 319 318 317 316 314 312 314 317 316 317 321 320 321 321 319 316 313 314 312 313 318 315 315 317 316 315 306 302 306 305 302 301 299 298 297 296 296 296 295 295 293 292 291 291 292 292 293 294 296 298 298 299 301 303 304 305 307 307 305 306 310 311 310 311 309 308 307 305 302 301 300 299 299 298 297 298 298 299 300 300 300 301 301 301
315 318 316 315 316 315 313 312 311 313 313 315 319 317 317 317 317 317 313 312 312 313 319 317 314 316 317 311 303 301 304 301 298 299 299 298 298 297 296 296 295 295 294 293 291 291 291 291 292 293 294 295 296 297 299 301 303 305 305 304 303 305 306 306 306 307 305 303 303 302 300 299 298 295 295 295 294 296 297 297 297 298 298 299 299 299
319 319 315 314 317 315 314 314 312 312 312 315 318 316 316 316 318 322 317 313 312 311 316 316 314 316 315 307 301 300 299 298 297 298 298 297 298 297 295 295 295 295 294 293 291 290 290 290 291 291 292 293 295 296 298 300 303 304 303 303 303 303 303 302 302 302 301 300 300 299 297 296 294 292 292 293 293 293 294 293 294 294 295 296 296 297
320 319 312 313 316 315 316 315 313 314 315 316 316 314 315 317 318 322 317 315 315 312 312 313 316 321 319 313 307 301 298 299 298 297 297 297 296 296 295 294 294 294 294 293 292 290 289 289 290 290 290 292 293 294 295 297 301 302 302 302 302 302 301 299 299 299 299 299 298 296 295 294 293 291 291 291 290 289 289 289 289 289 290 291 291 292
318 316 313 315 315 314 317 318 317 318 317 319 320 315 315 317 319 320 316 315 319 320 314 312 321 330 326 320 312 302 300 300 299 299 298 297 296 296 296 295 294 294 292 291 291 290 289 289 289 289 289 290 291 291 292 294 297 300 300 300 301 301 300 299 298 298 298 297 296 296 295 292 290 289 288 287 287 287 287 287 286 287 287 287 287 287
318 313 314 321 320 315 316 318 318 317 318 322 321 317 314 314 317 319 317 318 323 324 314 310 319 328 330 326 313 303 303 302 300 300 299 298 298 297 297 296 295 295 293 291 290 289 288 289 289 289 289 289 289 289 291 292 294 297 298 298 299 299 298 298 297 297 297 297 296 295 292 289 287 286 286 286 286 286 287 286 286 287 287 287 287 287
318 314 314 319 321 319 317 319 318 314 321 325 318 317 317 315 318 320 319 320 323 321 315 314 317 320 324 323 311 303 306 304 300 300 299 298 298 297 297 297 296 295 294 293 292 289 288 288 288 288 288 288 288 289 290 291 293 295 296 296 297 296 296 296 295 295 295 294 293 291 289 287 287 287 286 286 287 287 287 287 287 287 287 287 287 287
316 319 319 317 318 319 318 322 319 314 322 323 313 314 317 316 318 320 319 319 317 315 320 321 316 316 323 323 311 304 309 310 304 302 300 299 298 298 297 297 296 295 293 292 291 290 288 288 288 288 288 288 288 288 289 291 292 293 294 294 294 294 294 293 293 293 293 292 291 289 288 287 287 287 287 287 287 287 287 287 287 287 287 287 287 287
313 315 318 318 320 321 319 318 314 315 320 315 308 312 315 314 316 317 317 318 315 315 323 324 316 317 325 327 318 311 314 316 309 303 300 299 298 298 298 297 295 295 293 291 289 289 288 288 288 287 287 287 287 288 288 290 291 292 292 293 292 292 291 291 291 291 290 290 289 288 288 287 287 287 287 287 287 287 287 287 287 287 287 287 287 286
310 307 311 317 319 318 317 311 308 313 315 309 312 317 317 318 318 318 319 317 316 320 323 320 316 317 321 326 322 316 317 316 310 305 301 299 299 298 297 296 295 294 294 292 289 288 288 288 287 287 287 287 287 287 288 289 290 290 291 291 291 289 289 289 289 289 289 288 288 288 288 287 287 288 287 288 287 287 287 287 287 286 286 286 286 286
310 310 312 314 313 312 314 311 306 307 307 311 322 322 319 322 319 319 322 318 320 326 322 313 312 315 319 325 323 316 315 312 310 308 302 299 299 298 297 296 295 294 294 293 291 289 288 288 287 287 287 286 287 287 287 288 289 289 289 289 289 287 287 288 288 288 288 288 288 288 288 288 288 288 288 287 287 287 287 287 286 286 286 286 286 285
315 316 314 311 309 311 318 317 310 307 307 314 323 321 322 325 320 321 324 319 321 323 314 309 312 314 316 322 321 317 316 311 307 306 302 299 299 297 296 296 295 295 294 293 292 289 287 287 287 287 287 286 286 287 287 287 288 288 288 288 288 287 287 287 287 288 288 288 288 288 288 288 287 288 287 287 287 286 286 286 286 285 285 285 285 285
320 318 313 311 311 313 318 319 316 315 312 314 319 321 325 326 325 330 325 319 321 318 309 308 312 315 316 318 317 314 312 307 303 304 302 299 298 297 296 295 295 295 294 293 292 289 287 287 287 287 287 286 286 286 286 286 287 287 287 288 288 287 287 287 288 288 288 288 288 288 287 287 287 287 287 286 286 286 285 285 285 284 284 284 283 283
324 324 317 315 316 314 314 316 320 319 313 313 317 318 322 326 330 331 327 326 326 319 311 309 313 321 322 316 310 304 302 300 300 301 300 299 298 298 296 295 295 294 293 293 292 289 288 287 287 287 287 286 286 286 286 286 287 287 287 287 287 287 287 287 287 287 288 287 287 287 287 287 287 287 286 286 286 285 285 285 285 284 284 283 283 283
321 326 320 313 312 312 314 315 316 317 314 313 314 316 320 324 325 321 318 320 320 318 315 312 316 321 318 311 302 299 300 299 299 300 299 300 298 297 297 295 295 294 293 293 292 290 288 288 288 287 287 287 286 286 286 286 286 287 287 287 287 287 287 287 287 287 287 287 287 287 287 287 287 286 286 286 286 286 286 285 285 284 284 283 283 283
320 324 315 310 310 310 311 314 313 316 318 314 313 318 318 315 321 322 314 309 310 317 319 315 317 317 313 312 306 302 303 302 300 300 300 299 297 297 297 295 294 294 292 292 291 290 288 288 288 287 287 287 286 286 286 286 286 287 287 287 287 287 287 287 287 287 287 287 287 287 287 286 286 286 286 286 286 286 286 286 286 285 285 284 284 283
325 325 314 310 314 308 305 312 313 312 315 316 317 320 314 310 318 323 318 316 316 321 321 316 317 317 316 318 312 306 308 308 303 300 299 297 297 297 296 295 294 294 292 292 290 288 288 288 287 287 287 287 287 287 286 286 286 286 287 287 287 287 287 287 287 287 287 287 287 287 286 286 287 287 287 287 287 287 287 287 286 286 285 285 284 284
322 324 316 310 313 309 304 312 315 309 309 315 316 315 315 318 321 319 319 323 322 323 324 317 314 315 317 319 316 312 313 312 305 299 298 297 296 296 296 295 295 294 293 292 291 289 287 288 288 287 287 287 287 287 287 286 286 286 286 287 287 287 287 287 286 286 287 287 287 287 287 287 287 287 287 287 287 287 287 287 286 286 286 285 285 284
316 321 320 311 309 310 308 312 317 313 309 310 311 310 313 318 320 319 318 320 321 323 325 320 316 319 318 317 318 315 313 311 307 302 299 297 296 296 296 296 295 294 293 292 291 289 287 287 288 287 287 287 287 287 287 287 286 286 286 286 287 287 286 286 286 286 286 287 287 287 287 287 287 287 287 287 287 287 287 287 287 286 286 286 285 284
314 317 321 313 307 311 315 315 316 315 311 311 312 313 313 314 316 318 316 316 320 325 326 323 321 320 317 315 315 313 310 308 307 306 301 297 296 296 296 296 295 294 293 292 291 289 287 288 288 287 287 287 287 287 287 287 286 286 286 286 286 286 286 286 286 286 286 287 287 287 287 287 287 287 287 287 287 287 287 287 286 286 286 285 285 284
316 317 322 317 311 315 319 314 310 312 313 313 314 314 314 314 316 318 317 315 316 319 322 322 321 318 316 312 310 311 311 308 305 304 302 298 297 296 296 296 295 294 293 292 291 289 287 288 288 288 287 287 287 287 287 287 287 286 286 286 286 286 287 286 286 286 286 286 287 287 287 287 287 287 287 287 287 286 286 286 286 285 285 284 284 283
319 320 322 320 315 315 314 309 307 310 312 313 314 314 315 314 316 319 320 317 315 315 315 316 320 319 312 307 308 310 309 306 302 301 301 299 297 296 296 295 295 294 293 291 290 288 288 288 288 288 288 287 287 287 286 287 286 286 286 286 286 286 286 287 286 286 286 286 287 287 287 287 287 287 286 286 286 286 286 285 285 284 284 283 283 282
317 319 320 319 317 315 312 309 309 309 311 313 315 315 315 313 315 318 318 317 318 317 315 315 319 318 310 306 308 306 303 303 301 300 300 299 297 296 296 295 294 294 293 292 290 288 288 288 287 288 288 288 287 287 286 286 286 286 286 286 286 286 287 286 286 286 286 286 286 286 286 287 286 286 286 286 286 286 285 285 284 284 283 283 282 282
316 319 320 320 321 319 316 315 313 311 312 316 318 316 314 314 315 316 315 316 318 317 317 318 319 318 313 308 307 305 303 304 303 299 299 299 298 296 295 295 294 294 294 293 291 288 287 287 287 288 288 288 288 287 287 286 286 286 286 286 286 286 287 286 286 286 286 286 286 286 286 286 286 285 286 286 286 285 285 284 284 283 283 282 282 281
317 321 320 320 322 323 322 321 318 317 314 314 317 316 313 313 314 315 316 316 317 317 317 317 318 318 315 310 310 308 306 308 306 300 298 299 298 297 295 295 294 294 294 293 291 289 288 287 287 288 288 288 288 288 288 287 286 286 286 286 286 286 287 286 286 286 286 286 286 286 286 285 285 285 286 285 285 285 284 284 283 283 282 282 281 281
321 322 318 319 321 321 324 322 319 320 319 316 317 316 314 313 312 314 317 317 317 318 317 316 317 318 316 313 312 311 310 312 310 303 299 299 298 296 296 295 294 294 293 292 290 289 289 288 288 288 288 289 289 289 289 289 288 287 286 286 286 286 286 286 286 286 286 286 286 285 285 285 285 285 285 285 285 284 283 283 282 282 281 281 280 280
321 321 318 319 319 320 325 321 316 318 320 318 317 317 315 312 311 314 316 316 318 318 318 318 317 318 318 315 314 315 314 313 310 305 301 299 298 297 296 295 295 294 293 292 291 291 290 289 288 288 288 289 289 289 290 290 290 289 287 286 286 286 286 286 286 286 286 286 285 285 285 285 285 285 285 285 284 283 283 282 282 281 281 280 280 280
320 320 318 318 318 318 321 318 314 316 319 319 319 318 315 312 311 313 313 314 318 318 317 318 318 317 317 315 316 316 312 310 309 306 302 299 298 298 296 296 295 294 293 293 292 292 291 290 289 288 288 288 289 290 290 290 291 290 288 287 287 287 287 286 286 286 286 286 285 285 285 285 285 285 285 284 283 283 282 282 281 281 280 280 280 279
319 320 319 318 318 318 318 316 315 316 317 317 317 317 316 313 311 312 312 313 315 316 315 316 316 315 315 316 316 311 307 307 306 304 301 300 300 300 298 297 296 294 294 293 292 292 291 289 288 288 288 288 288 289 290 290 291 291 289 288 287 287 287 287 287 287 286 286 286 285 285 285 285 285 285 284 283 283 282 282 281 280 280 279 279 279
316 318 316 315 318 318 314 313 314 314 314 315 316 316 315 313 312 312 313 312 312 313 313 313 313 312 312 315 315 309 306 306 306 305 304 303 302 301 299 297 296 295 294 294 293 292 290 289 288 288 287 288 288 289 290 290 291 291 290 288 288 288 287 287 287 287 287 286 286 286 286 286 285 285 284 283 283 283 282 281 280 279 279 279 279 279
314 314 312 314 319 318 311 310 311 310 310 312 314 313 312 312 313 312 311 312 313 313 313 312 312 312 311 311 311 308 307 308 308 307 305 304 303 302 302 301 298 297 296 295 293 292 292 290 288 288 287 288 288 289 290 290 291 291 290 289 288 288 288 287 287 287 287 286 286 286 286 285 285 284 283 282 282 282 281 280 280 279 279 278 278 278
311 312 313 314 319 316 308 307 310 309 311 314 314 314 313 311 311 310 309 309 310 311 313 312 312 312 311 309 307 307 308 308 309 307 306 306 303 301 302 302 299 298 297 296 295 294 292 290 288 288 289 288 288 289 290 290 290 291 290 289 288 288 287 287 287 287 286 286 286 286 285 285 284 283 282 282 282 281 281 280 279 279 278 278 278 278
309 312 314 314 318 314 304 304 310 312 316 315 309 310 313 312 310 310 309 308 308 309 310 311 311 311 310 308 308 308 308 306 306 303 302 303 303 302 301 300 299 299 296 295 295 293 290 289 289 289 289 289 289 290 290 290 290 291 290 289 288 287 287 287 286 286 286 286 285 285 284 283 283 282 282 281 281 281 280 279 279 278 278 278 278 278
309 311 312 313 314 310 303 306 313 316 315 308 299 299 305 309 310 310 309 308 307 307 308 309 309 309 308 308 307 306 304 302 300 299 298 299 300 301 301 301 300 300 299 297 295 291 288 288 289 289 289 290 290 289 288 289 289 290 290 288 287 287 286 286 286 286 285 285 285 284 283 283 282 282 282 282 282 281 280 279 278 278 278 277 277 277
310 311 311 311 308 305 305 309 314 314 310 304 298 296 299 303 307 307 307 308 306 305 305 306 306 306 306 304 301 299 298 297 296 297 298 297 297 298 300 303 303 302 300 298 294 291 289 290 291 291 291 291 289 288 288 288 289 289 288 287 287 286 286 286 285 285 285 284 284 283 283 282 282 282 282 282 282 280 279 279 278 277 277 277 277 277
309 311 311 311 309 308 308 309 311 311 310 308 305 300 299 304 307 306 309 309 304 301 302 303 305 305 304 301 298 295 295 296 297 298 297 296 296 297 298 298 299 297 294 292 291 291 292 292 292 292 291 289 288 288 288 288 288 288 287 287 286 286 285 285 285 285 284 284 283 283 283 283 282 282 282 282 281 280 279 278 277 277 277 277 276 276
306 309 311 313 312 310 309 309 310 311 312 313 309 301 297 301 303 303 306 308 303 299 301 303 305 305 302 299 297 295 295 297 299 298 297 295 293 293 293 291 290 291 290 290 291 292 292 292 291 290 290 289 288 288 288 288 288 287 286 286 286 285 284 284 284 284 284 283 283 283 283 283 282 282 281 281 280 279 278 277 277 277 276 276 276 276
303 306 308 312 311 309 309 312 311 311 312 312 306 298 294 298 302 303 305 306 304 301 299 300 303 304 301 298 296 296 297 298 299 298 298 297 292 289 292 290 287 288 290 291 292 292 293 292 290 288 288 288 288 288 288 287 287 287 286 286 285 284 284 284 285 285 284 283 283 283 283 282 282 281 280 280 279 279 278 277 277 276 276 276 275 275
303 305 306 310 311 309 309 311 310 310 310 305 300 295 293 296 302 306 307 305 303 297 295 298 303 301 299 296 295 296 298 299 300 299 297 296 290 286 288 289 287 287 290 291 291 291 291 289 288 288 288 288 289 289 288 287 287 286 286 286 284 283 284 285 286 285 284 283 282 282 282 281 281 280 279 279 279 278 277 277 276 275 275 275 275 274
303 304 305 307 309 309 310 311 310 310 306 299 296 294 293 297 302 306 308 305 300 295 292 297 301 298 295 295 294 296 299 297 296 297 294 292 292 288 286 286 287 288 289 290 290 289 289 289 289 289 289 290 290 289 288 287 286 286 286 284 283 285 286 286 286 284 283 282 282 282 281 280 280 279 279 278 278 277 276 276 275 275 274 274 274 274
303 303 304 306 307 307 309 309 309 310 304 297 294 291 292 299 304 306 305 300 297 297 293 293 297 296 294 295 294 296 298 293 291 295 294 292 295 294 287 284 285 286 287 287 287 287 288 288 288 288 289 289 289 289 289 288 287 286 285 283 285 287 287 286 285 283 282 282 282 281 280 280 279 278 278 278 277 277 276 275 275 274 274 273 273 273
304 305 304 305 306 306 307 307 308 310 302 294 293 293 294 301 305 303 298 293 293 296 294 293 296 294 294 296 294 293 294 291 290 293 293 292 294 292 286 283 285 286 286 286 286 287 287 287 287 288 289 289 288 289 288 287 287 285 284 284 287 288 286 285 284 283 282 281 281 280 280 279 278 278 277 277 277 276 275 274 274 273 273 273 273 272
305 306 305 305 306 306 307 307 306 305 298 294 296 298 297 300 302 299 297 295 293 292 292 294 296 292 291 296 296 292 291 291 290 291 291 291 292 290 285 283 284 285 287 287 287 287 286 286 287 288 288 287 287 288 287 287 286 284 284 286 288 286 284 284 283 282 281 281 280 280 279 278 278 277 277 277 276 276 275 274 273 273 272 272 272 272
304 303 304 305 304 303 306 305 300 296 293 293 298 301 298 298 298 297 298 298 295 292 291 295 297 292 288 292 294 292 291 291 290 290 291 292 293 290 287 284 284 285 287 287 286 286 286 287 287 287 286 286 286 286 286 286 285 284 285 287 286 285 284 283 282 281 281 281 280 280 279 278 277 277 277 276 275 275 274 273 272 272 272 272 272 272
296 295 298 301 301 298 298 298 295 294 293 293 296 298 296 296 296 295 297 298 296 293 292 294 297 295 290 289 291 291 292 292 291 290 290 291 292 289 283 282 284 286 286 286 286 286 286 286 286 285 284 285 285 285 285 285 284 285 286 286 285 283 283 282 281 281 281 280 280 279 278 277 277 276 276 275 275 274 273 272 272 271 271 271 271 271
293 292 294 297 299 299 297 295 294 295 294 293 294 294 294 295 293 292 295 297 296 294 292 291 293 293 289 288 290 292 292 291 290 291 290 291 293 290 282 281 283 285 285 286 287 286 285 284 283 283 283 284 285 285 285 284 284 285 285 284 283 282 281 281 281 281 280 280 279 278 278 277 276 276 275 274 274 273 272 272 271 271 271 271 271 271
296 294 294 295 296 296 295 292 291 292 292 291 293 294 294 295 294 292 293 294 292 292 291 289 289 291 291 290 290 291 292 290 289 291 291 289 291 288 282 280 283 285 286 287 286 285 283 283 283 283 283 284 285 285 284 284 284 283 282 281 281 281 280 280 280 280 279 279 278 278 277 276 275 275 274 273 273 272 272 271 271 271 271 271 270 270
295 294 295 295 293 292 291 289 289 291 292 291 292 293 293 293 293 293 292 291 290 291 291 289 287 287 290 292 291 290 291 290 289 289 291 290 289 286 282 282 284 285 286 286 285 284 284 283 283 283 283 285 286 284 283 284 283 282 281 280 279 279 279 279 279 278 278 278 277 277 276 275 274 274 273 272 272 272 271 271 271 270 271 271 270 270
293 295 295 294 294 294 293 291 291 293 294 294 293 293 292 291 291 291 292 292 292 292 292 291 289 285 285 286 286 288 292 292 288 287 289 290 287 284 283 283 284 285 286 286 285 284 283 284 284 284 284 285 285 283 283 283 283 281 280 279 278 278 278 278 278 277 277 277 276 276 275 275 274 273 272 272 272 271 271 271 270 270 270 271 270 270
293 295 294 293 295 295 294 292 291 292 295 295 294 294 293 291 291 292 292 293 293 291 290 291 292 290 288 285 282 284 290 291 285 285 289 289 284 283 284 284 284 285 286 286 284 283 283 283 283 283 283 284 284 282 282 282 281 281 280 278 277 277 277 277 277 276 276 276 276 276 275 275 274 273 272 271 271 270 270 270 270 270 269 269 269 269
Wind_Speed
3 3 3 6 6 8 10 9 6 4 6 6 5 4 4 4 4 4 3 5 1 1 5 4 5 9 7 2 2 2 1 3 3 3 3 3 3 3 3 3 3 3 3 6 11 13 15 15 15 16 17 19 21 22 23 24 26 25 25 26 25 25 25 25 25 25 25 26 27 29 30 31 31 29 28 29 29 29 28 27 25 25 24 22 23 23
4 4 9 8 7 8 7 7 5 4 5 5 4 3 3 4 5 4 1 3 2 2 3 1 2 9 7 2 3 2 2 3 2 2 2 2 2 2 2 2 2 1 2 6 11 15 16 16 16 17 18 20 21 22 24 25 26 26 26 26 25 24 24 24 24 24 26 27 27 29 32 32 31 30 30 32 32 30 29 28 27 26 25 24 25 25
2 6 10 5 6 5 4 5 6 4 3 3 3 3 3 3 3 5 2 3 2 2 3 1 1 8 5 1 3 2 2 1 2 1 1 1 2 1 1 1 2 1 2 5 9 14 15 14 15 17 19 20 20 21 23 24 26 27 27 27 27 26 26 26 26 26 29 30 29 31 32 32 33 34 33 33 33 31 30 30 29 28 27 26 27 26
3 7 8 5 8 7 4 4 6 4 2 3 3 3 4 2 1 3 3 3 2 0 2 1 3 6 2 1 2 1 1 2 1 2 1 1 1 1 1 1 2 2 3 4 6 9 12 12 14 17 18 19 20 21 22 24 26 27 26 26 27 27 28 28 29 30 31 32 33 34 34 34 35 36 34 34 34 33 33 33 33 32 30 29 29 28
5 5 2 6 7 7 5 4 6 5 2 3 5 6 5 4 5 6 2 2 2 3 0 2 3 5 2 2 2 0 1 1 1 2 2 1 1 1 1 1 2 2 3 3 3 6 9 11 13 15 16 18 20 21 22 23 25 25 25 25 25 26 27 28 30 31 32 33 34 35 35 35 35 35 34 35 36 36 36 36 36 35 33 32 32 31
6 4 4 7 4 5 6 4 5 7 3 3 5 10 10 7 7 5 1 3 2 3 2 2 2 5 2 2 3 2 2 2 0 2 2 0 0 1 1 1 1 2 2 2 2 3 6 9 11 13 15 17 19 20 21 23 25 26 25 24 24 24 25 25 25 26 27 29 31 32 33 34 36 36 34 34 35 36 36 36 35 34 33 33 33 33
3 1 4 6 5 5 6 4 6 7 5 2 4 8 10 7 5 4 3 2 1 3 2 2 3 4 5 4 2 2 2 2 1 1 2 2 1 2 2 1 1 1 1 1 2 3 5 7 9 12 14 16 18 19 21 23 26 28 28 27 26 26 25 25 25 24 25 27 29 31 34 36 38 37 32 31 33 34 34 33 33 32 32 31 31 31
3 2 3 5 6 5 5 4 6 8 7 3 3 4 7 7 6 6 6 4 3 2 2 2 2 2 4 4 2 1 2 3 3 3 3 3 4 3 3 2 2 2 1 1 1 2 5 6 8 10 12 15 18 20 22 25 27 28 29 29 29 28 28 28 27 27 27 29 31 34 37 38 38 36 32 31 32 32 31 31 31 31 31 30 30 29
3 5 5 7 5 4 5 4 8 10 5 4 2 6 6 6 6 5 5 3 1 1 3 3 1 1 4 4 2 1 2 6 5 6 6 6 6 5 4 4 3 2 2 2 1 2 4 6 8 10 12 15 18 20 23 26 27 29 29 29 29 29 29 28 28 28 28 30 32 34 37 37 35 34 32 30 30 29 29 30 30 29 29 29 28 28
1 4 7 8 5 6 4 1 7 9 4 4 6 7 6 5 5 4 4 3 2 0 5 5 4 3 4 4 2 1 3 8 6 7 7 6 6 6 6 5 4 3 2 2 3 3 4 6 8 10 13 15 17 20 23 26 27 28 28 28 29 29 29 28 28 28 29 30 31 32 34 35 33 31 30 29 28 28 27 28 28 27 27 27 26 26
1 1 2 4 4 5 4 3 2 4 4 6 6 6 6 5 4 3 2 3 2 2 6 6 5 4 3 4 4 4 4 5 6 5 6 6 7 8 6 5 5 4 3 3 3 5 6 7 9 11 13 15 17 20 23 25 26 27 27 27 29 29 28 28 28 29 30 29 30 31 31 31 30 29 28 27 27 26 25 26 26 26 25 25 25 24
2 1 2 1 2 4 6 5 4 3 4 5 4 4 4 3 3 3 4 3 1 5 5 4 2 3 4 4 4 5 4 4 7 8 10 11 10 10 7 5 5 5 4 4 3 5 7 8 10 11 13 15 17 20 22 24 25 26 26 27 29 29 28 28 28 28 29 28 28 28 28 28 27 26 25 26 26 24 24 24 24 23 23 23 22 22
2 3 2 0 1 4 6 5 4 3 2 4 4 5 4 2 2 1 3 1 3 5 3 2 1 3 5 6 7 6 5 5 5 5 11 15 13 11 8 6 5 5 5 4 4 4 7 9 11 12 13 15 17 19 21 24 25 26 26 26 28 28 27 27 26 27 27 27 26 26 26 26 25 25 24 24 24 23 23 22 22 22 22 22 22 21
2 4 1 3 1 3 7 6 3 2 2 4 5 5 4 2 1 3 3 2 4 4 2 2 1 2 4 5 6 5 4 4 3 2 4 10 13 11 9 7 6 6 5 4 4 5 8 11 12 13 14 15 17 19 21 23 24 25 26 26 27 28 26 25 25 26 26 26 25 24 24 24 23 24 24 24 23 22 22 22 22 22 22 22 22 22
3 4 5 6 3 5 9 6 5 7 5 4 4 5 4 5 4 4 4 3 4 2 2 3 2 4 3 2 3 3 3 3 2 2 1 3 6 7 7 6 7 7 5 4 4 6 9 12 13 13 14 15 17 19 20 22 24 25 25 25 27 27 26 25 25 25 25 25 24 23 23 23 23 23 24 23 23 22 22 22 22 22 22 22 22 22
3 5 4 1 1 7 9 4 5 7 4 2 2 4 3 4 4 2 3 4 2 1 2 2 3 4 4 2 2 2 3 3 2 1 1 3 4 6 6 7 8 7 6 5 5 6 10 13 14 14 15 16 17 19 20 22 24 25 25 25 26 26 25 24 24 24 24 24 23 22 22 22 22 22 22 23 22 22 22 21 21 21 21 21 21 21
2 4 4 2 2 3 5 3 3 3 3 2 2 4 4 3 6 4 2 1 3 2 4 3 3 3 1 2 2 2 2 3 2 1 3 5 6 7 8 9 9 8 7 6 6 8 11 14 15 15 16 17 18 19 21 22 23 24 25 26 26 26 25 24 23 23 23 22 22 22 21 21 21 21 21 21 21 20 20 20 20 19 18 19 19 20
4 2 3 1 1 1 0 3 4 3 3 6 3 5 3 2 4 3 2 2 2 3 4 2 4 3 2 2 2 1 3 6 4 2 3 5 7 9 11 10 9 8 7 7 7 9 13 15 16 17 17 18 20 20 21 22 23 24 24 25 26 25 24 23 22 21 20 20 20 20 20 19 19 19 19 19 18 18 18 19 19 18 18 18 18 18
4 1 4 1 2 1 2 3 4 4 2 5 4 3 4 3 2 2 2 2 1 4 4 2 2 3 5 5 3 5 9 9 7 4 5 9 11 12 12 11 10 8 7 7 7 7 11 16 17 18 19 19 20 20 21 22 23 24 24 24 24 24 23 22 21 20 19 18 18 18 17 17 16 15 15 15 15 16 17 18 19 19 19 19 18 18
3 3 3 1 1 1 1 2 4 2 1 3 1 2 3 2 4 3 2 2 3 3 3 3 2 3 6 6 9 13 13 11 9 7 9 12 13 13 12 12 12 10 9 8 7 7 12 17 20 21 21 21 20 20 21 22 23 24 24 24 24 23 22 21 19 18 17 15 15 14 14 13 13 12 12 13 13 14 15 16 17 18 19 19 19 19
3 3 3 1 2 1 2 4 7 8 5 3 3 4 2 1 2 1 1 2 3 3 2 3 4 4 4 4 9 11 10 10 12 12 12 12 13 13 12 13 12 11 10 9 8 9 13 18 21 22 21 20 20 20 21 23 23 24 25 25 24 23 22 20 18 16 15 13 12 11 11 10 10 10 10 10 10 11 13 14 15 17 18 18 19 19
4 3 4 2 1 4 4 4 3 6 7 6 6 7 7 5 4 2 4 1 2 2 3 2 5 5 3 2 5 5 4 6 10 11 11 11 13 13 12 12 12 11 11 10 8 10 15 19 21 22 21 20 21 21 22 23 24 25 25 25 24 23 21 20 18 16 13 12 10 8 8 8 7 7 6 6 8 10 12 14 15 16 17 18 18 19
3 3 4 3 3 4 4 3 1 2 3 4 4 5 6 5 5 5 6 3 2 1 2 2 4 5 2 2 3 3 3 3 6 8 8 9 10 11 10 9 9 9 8 7 8 11 15 19 21 21 22 22 22 23 24 25 25 26 26 25 24 22 21 19 17 15 13 10 9 7 6 5 3 2 3 5 8 11 13 14 15 15 17 18 18 19
2 3 4 1 2 2 3 2 1 3 3 2 3 3 5 5 4 5 4 3 3 4 3 2 5 4 2 2 2 3 3 2 4 7 8 7 6 7 9 9 8 8 6 6 8 11 14 17 19 21 22 22 23 24 25 25 25 26 26 25 24 22 21 19 18 15 13 11 9 7 5 3 2 0 3 7 9 11 12 13 14 15 16 17 18 19
4 4 5 3 0 1 2 2 1 1 2 4 3 3 6 6 5 2 1 3 2 6 7 5 8 5 1 2 2 1 1 2 4 5 6 6 6 7 8 9 9 8 7 8 8 9 12 15 18 21 22 23 25 26 26 26 26 26 26 25 24 23 22 20 18 16 14 12 10 7 6 5 3 1 4 6 8 10 11 12 14 15 16 17 18 19
6 4 6 7 7 8 6 5 5 4 3 2 2 4 7 9 9 5 2 3 5 5 8 8 9 4 1 3 4 3 1 2 5 5 5 6 6 7 8 8 9 9 10 11 10 9 11 13 17 21 23 24 26 27 27 27 27 27 27 26 25 24 23 21 19 17 15 13 11 9 8 6 3 2 4 6 7 9 11 12 14 15 16 17 17 18
3 3 8 11 11 9 7 4 4 6 6 5 6 8 9 11 11 7 3 5 6 4 4 9 5 3 5 5 5 5 3 4 5 4 5 6 7 7 7 7 8 8 9 9 8 8 10 12 17 21 23 25 26 27 28 28 28 28 28 27 26 25 23 22 20 18 16 14 12 11 9 7 5 4 5 6 8 9 11 13 14 15 16 17 17 18
2 4 8 10 9 5 4 3 4 7 8 9 9 10 11 10 10 11 9 8 6 5 9 8 6 3 11 6 6 7 6 6 6 6 7 7 6 6 5 6 8 8 7 7 9 10 11 12 15 20 23 25 26 27 28 29 29 29 29 28 27 26 24 23 21 20 17 15 14 12 10 8 6 6 6 7 8 10 12 13 14 15 16 16 17 17
3 4 3 5 5 3 5 3 3 5 5 6 8 11 11 10 12 14 15 11 8 8 13 5 7 9 12 5 8 10 8 8 7 6 6 4 4 5 6 7 9 9 10 11 12 13 12 12 14 19 22 24 25 27 28 29 29 29 30 29 28 26 25 23 22 20 19 17 16 14 12 9 8 7 7 8 9 11 12 13 14 15 16 16 17 18
3 3 1 4 6 4 4 3 3 5 3 3 6 11 11 11 13 15 16 13 9 10 10 1 5 12 8 5 9 8 4 5 4 3 4 4 5 6 7 8 9 9 10 11 12 11 10 11 14 17 20 22 25 27 28 30 30 31 31 30 28 27 25 24 22 21 20 18 17 15 13 11 10 9 8 8 10 11 13 14 15 15 16 17 17 18
3 3 3 4 4 4 3 4 4 5 5 5 11 15 10 7 9 13 12 7 5 9 8 4 8 11 6 5 6 2 2 4 4 4 5 5 5 6 7 8 8 9 9 9 9 8 8 9 13 16 19 23 27 30 31 32 33 33 32 30 29 28 25 24 23 21 20 19 18 16 14 13 11 10 9 9 10 12 13 14 15 16 17 17 17 18
2 1 2 3 4 3 3 5 5 3 2 6 17 17 9 7 9 9 7 6 8 10 9 8 10 9 4 5 4 2 3 5 5 6 5 5 6 7 8 8 8 9 9 9 9 8 8 10 14 18 22 26 30 32 34 34 33 33 33 32 30 28 25 23 22 21 20 19 19 17 16 14 12 11 10 9 10 12 13 14 15 16 17 17 18 18
3 3 2 3 4 1 2 4 6 5 2 8 15 11 11 12 8 4 4 8 11 10 8 8 9 5 4 6 6 5 5 6 7 6 5 6 6 7 8 8 7 8 8 8 9 9 10 13 17 22 26 28 31 34 36 36 35 35 34 33 30 27 25 23 22 21 20 20 20 18 17 15 13 11 10 9 10 12 13 14 16 17 17 18 18 18
4 4 3 3 3 1 2 4 6 3 5 7 5 2 9 15 13 9 9 10 11 9 6 3 3 4 6 7 9 8 8 7 6 6 5 5 6 7 7 6 7 7 7 7 8 9 12 15 19 23 26 29 31 34 35 35 35 35 33 31 29 26 25 24 22 22 21 21 20 19 18 16 13 11 9 9 10 12 13 15 16 17 18 18 18 18
6 5 2 1 2 1 3 5 4 6 7 3 4 3 3 7 11 12 10 9 12 13 7 3 4 6 7 8 7 7 6 4 3 4 4 4 6 6 5 6 7 7 7 7 7 9 13 16 18 21 24 27 29 30 30 31 32 31 30 29 28 27 25 24 23 23 22 22 21 20 18 15 12 10 9 10 11 13 14 15 16 17 18 18 18 18
6 5 2 2 2 2 2 5 6 4 3 2 4 4 2 4 5 5 5 8 11 11 9 8 7 7 7 7 4 2 3 1 2 3 6 6 5 6 6 7 8 7 7 8 9 11 14 16 18 20 21 23 25 26 28 30 31 30 29 28 28 27 26 25 24 24 24 23 22 20 18 14 12 10 10 11 13 14 15 16 16 17 18 18 18 18
5 5 3 2 3 3 3 5 3 4 5 4 3 2 3 5 6 6 4 8 7 8 8 8 8 10 9 4 2 3 3 3 4 5 6 7 7 8 8 8 7 7 9 10 10 12 13 14 15 16 16 17 20 24 27 29 29 29 28 27 26 26 26 26 26 25 25 24 23 20 17 14 12 11 11 12 14 15 15 16 16 17 18 18 19 19
2 3 4 5 3 3 3 4 2 3 7 6 4 3 3 4 5 6 2 4 3 7 11 10 10 13 8 4 5 4 5 3 4 6 5 6 7 7 8 8 8 9 10 10 10 11 12 12 12 13 14 15 18 22 25 27 28 28 27 27 27 27 27 27 28 27 26 25 23 19 16 14 12 12 12 13 14 15 16 16 16 17 17 18 19 20
1 0 2 4 3 3 4 5 5 6 6 4 4 3 1 3 6 8 4 5 4 7 10 10 10 11 6 6 6 5 5 2 5 6 4 6 7 7 7 7 9 11 12 11 11 11 12 12 11 11 13 15 18 22 24 26 27 27 27 27 28 28 29 29 29 28 27 25 21 18 16 14 13 13 13 14 15 15 16 16 16 17 17 18 19 20
2 1 1 4 4 5 6 5 4 4 3 3 5 4 3 4 6 7 1 6 5 6 7 8 9 9 6 8 7 6 6 6 6 6 5 6 6 7 9 9 9 12 14 14 13 11 11 11 12 14 16 18 20 22 24 25 26 27 28 28 28 29 30 31 31 28 26 23 20 18 17 15 14 14 14 15 16 16 15 16 16 16 17 17 19 20
1 1 2 4 5 6 8 5 3 3 3 4 5 5 5 3 5 3 6 5 4 6 6 8 9 7 7 9 7 6 6 6 4 3 3 5 5 6 10 11 10 10 11 12 12 12 11 13 15 17 18 20 21 22 24 26 27 28 28 28 29 31 32 32 30 27 25 23 21 20 18 16 15 14 15 15 16 15 15 16 16 17 17 18 19 19
2 1 1 3 3 4 5 3 2 3 3 5 4 2 3 3 2 4 5 3 5 8 7 6 7 7 8 9 8 7 6 4 5 3 3 5 4 4 7 9 9 9 9 9 10 12 14 15 16 18 19 20 22 24 25 26 27 28 28 28 30 32 32 31 29 27 25 24 22 20 18 16 15 15 15 16 16 16 16 16 16 17 17 17 19 19
5 4 2 4 3 2 1 3 3 4 3 9 8 2 1 3 4 4 2 1 3 6 7 7 6 7 8 8 8 8 6 4 4 4 4 4 4 3 5 8 10 11 12 11 12 14 16 17 19 21 22 22 23 25 26 28 29 29 29 30 32 32 31 30 29 27 26 24 22 20 18 16 15 15 15 16 16 17 17 16 16 16 16 17 19 20
3 4 3 4 3 3 4 6 3 1 6 11 10 4 5 5 4 5 6 3 2 3 6 6 6 7 8 8 8 9 6 4 4 5 5 5 6 5 5 7 10 11 12 14 15 15 18 20 21 23 24 24 25 26 28 30 30 30 31 32 33 32 31 30 28 27 26 24 22 20 18 17 16 16 16 16 17 18 17 16 16 16 16 17 18 19
3 3 4 3 2 4 5 4 1 1 5 8 5 2 5 5 4 5 7 5 3 4 5 5 6 7 8 8 7 6 5 6 6 5 6 6 6 6 7 8 11 12 14 15 15 15 18 21 23 23 25 26 27 28 30 32 32 32 34 34 33 32 32 30 29 28 27 25 23 21 19 18 17 17 17 17 18 18 17 16 17 16 16 17 18 19
1 1 2 1 1 2 1 2 2 0 3 6 4 1 3 4 3 4 6 5 5 5 6 5 6 7 8 8 6 5 6 7 7 6 7 6 6 7 8 9 11 14 15 15 16 17 20 21 21 22 24 27 29 31 32 33 34 35 36 35 33 33 31 30 30 29 27 25 24 22 20 19 18 17 18 18 18 18 17 16 17 17 17 17 18 18
1 2 2 0 2 3 1 2 2 1 3 6 6 2 1 2 3 4 4 4 4 6 6 5 4 5 6 7 7 8 8 7 7 7 7 6 7 7 8 10 13 16 17 18 19 19 19 19 20 22 24 27 30 32 34 35 36 37 36 33 32 31 30 30 30 29 28 26 24 22 21 20 19 18 18 18 18 18 17 17 17 18 18 18 18 18
1 3 3 2 3 2 1 1 2 2 2 4 4 4 4 4 4 4 4 2 3 4 5 5 4 5 6 6 8 9 9 7 8 8 7 6 7 7 8 12 15 17 18 18 18 18 18 20 22 24 26 29 31 32 34 36 37 37 36 33 31 30 30 30 30 29 28 26 24 23 22 20 19 19 18 18 18 18 17 17 18 18 19 17 17 18
2 3 3 2 2 1 0 1 1 3 4 4 5 6 7 6 5 5 4 2 3 4 5 5 5 6 7 7 8 8 8 8 7 7 8 7 6 6 9 14 17 18 19 18 18 18 20 22 25 26 28 31 31 31 32 35 36 37 37 35 32 30 30 31 31 29 27 25 24 23 22 20 19 19 18 18 18 18 18 17 18 19 19 18 17 18
3 4 2 2 2 2 2 4 4 2 1 5 7 9 10 7 5 4 4 4 6 7 7 6 6 5 6 8 8 8 8 9 8 8 8 7 7 10 13 16 17 18 20 19 18 18 20 23 25 27 29 31 31 29 31 33 35 35 37 36 34 32 31 32 31 29 27 26 25 24 22 21 20 20 19 19 19 19 18 17 17 18 20 18 17 16
5 6 5 4 3 4 6 8 7 4 4 6 7 8 9 7 6 7 7 8 9 8 7 7 7 6 7 10 10 11 10 9 9 10 8 9 13 15 16 17 18 19 20 20 18 19 22 24 25 26 29 30 30 29 30 32 32 34 35 36 35 33 33 33 31 29 28 28 26 24 22 21 20 20 19 19 19 19 19 18 17 17 18 18 17 15
Wind_Direction
106 125 203 217 199 196 200 196 188 151 117 126 129 134 183 220 258 237 232 292 330 125 274 255 257 274 270 298 340 314 45 74 66 57 52 41 42 36 40 37 30 40 27 25 34 39 44 50 56 62 68 75 78 81 86 92 94 93 95 100 99 101 107 110 110 109 106 104 100 95 91 87 83 81 80 77 75 75 73 72 70 68 67 65 64 63
86 174 227 225 191 189 196 183 152 118 112 110 130 171 229 222 247 258 220 315 336 178 266 353 301 273 266 288 334 337 58 48 19 54 61 48 56 36 43 30 10 27 20 37 40 40 47 52 57 64 69 74 76 76 82 89 91 93 95 96 94 96 102 104 105 107 104 102 101 97 94 92 88 84 82 79 76 76 75 73 71 70 69 68 67 66
97 224 238 210 147 129 107 147 160 161 139 110 118 165 244 228 251 289 304 341 3 182 258 21 265 265 266 330 355 11 68 55 358 75 123 100 90 50 41 19 12 31 24 36 35 36 44 50 57 65 69 74 76 78 83 88 92 94 94 94 93 95 98 99 101 103 101 101 100 99 97 95 91 86 84 82 80 79 77 74 72 71 70 68 68 67
178 247 244 166 136 125 91 114 140 139 150 154 149 173 236 220 188 273 291 329 0 39 259 191 277 269 249 12 2 30 113 116 62 76 73 72 102 51 1 351 12 33 32 33 27 30 41 49 58 64 69 76 81 84 87 91 95 97 96 97 98 98 99 100 101 102 103 103 102 100 98 96 93 88 87 86 82 80 78 76 75 73 71 71 70 69
217 251 205 121 135 149 132 118 137 151 218 228 202 204 223 202 207 234 264 324 348 3 1 144 309 292 214 205 229 179 159 140 81 94 83 45 49 27 6 15 22 35 32 31 21 18 32 47 57 64 72 77 81 84 86 92 99 102 104 106 106 107 106 106 105 106 107 107 105 104 100 97 93 88 85 83 79 78 78 76 75 74 73 73 72 71
249 238 128 107 114 145 144 164 180 171 192 274 228 211 217 207 210 227 356 23 10 331 304 143 260 288 300 240 209 182 193 192 70 112 136 141 67 104 115 78 45 56 52 43 30 19 37 54 64 70 75 78 80 84 88 94 101 105 108 110 112 113 113 113 112 112 113 111 109 107 101 95 90 84 79 79 78 78 78 77 77 76 74 73 72 71
247 225 122 127 130 139 154 213 222 166 140 277 248 207 208 196 181 177 142 111 161 253 301 86 191 259 321 310 229 174 194 213 238 187 198 214 193 178 180 177 140 106 92 74 53 53 62 67 72 74 77 82 85 89 94 98 101 105 106 107 109 111 113 114 115 115 115 111 107 102 97 93 91 88 84 84 84 83 82 81 79 77 74 73 71 70
175 127 100 130 126 138 172 227 218 160 138 231 248 161 168 173 178 176 160 172 223 249 323 28 148 226 296 287 264 160 197 244 241 231 232 214 206 203 199 194 172 161 145 139 89 69 79 79 80 83 86 92 95 97 100 101 102 104 106 106 107 108 109 110 111 111 109 105 101 98 96 94 93 93 91 89 87 86 85 82 79 77 75 72 70 69
150 164 177 158 138 173 199 216 187 160 154 239 188 118 133 152 161 148 143 178 271 1 288 289 134 205 264 268 309 62 244 254 224 210 216 205 205 202 197 198 181 175 175 166 163 100 94 95 96 100 101 103 105 105 104 105 106 107 107 108 108 107 107 107 107 105 103 102 101 100 99 97 95 95 94 92 89 87 85 82 79 76 74 72 69 67
131 202 191 154 155 198 201 225 181 167 183 197 129 99 83 78 85 93 116 128 64 88 242 237 182 200 267 278 291 77 255 251 213 200 208 195 200 202 197 194 179 178 178 168 165 140 124 120 117 116 115 113 111 110 109 109 110 110 110 110 108 107 107 106 106 105 103 103 102 101 101 100 98 97 95 93 89 86 84 81 78 75 73 71 68 66
318 301 195 147 170 183 140 70 130 143 145 142 113 79 62 45 48 56 66 89 71 269 248 233 198 193 256 273 235 202 231 215 164 177 196 185 202 207 200 191 179 181 178 173 169 152 141 135 131 127 123 119 117 116 115 114 114 114 113 112 109 108 108 108 107 106 104 103 101 100 100 100 99 97 95 91 86 83 81 78 76 73 71 68 66 64
346 345 257 193 147 127 104 67 45 66 96 110 94 94 90 5 14 29 359 49 153 249 256 263 219 186 225 253 238 228 241 200 166 176 182 183 199 202 194 187 181 185 181 180 178 159 152 146 142 138 130 126 125 123 121 119 119 118 116 115 113 110 110 109 107 106 104 102 101 100 99 97 96 94 91 87 83 79 77 75 73 71 68 66 63 60
282 227 238 189 160 139 117 86 47 32 54 87 96 113 114 345 3 352 295 237 223 245 263 291 198 197 231 247 252 241 228 217 206 191 179 181 190 193 186 181 181 188 184 183 184 172 168 162 156 149 140 135 132 128 126 125 124 123 121 119 116 113 112 111 108 106 103 101 99 98 97 95 92 89 86 83 80 77 74 73 71 68 65 62 59 55
270 279 202 151 234 189 154 146 138 161 173 154 148 140 137 128 137 247 258 259 255 249 293 299 222 219 263 265 261 244 223 225 236 254 198 184 185 184 179 175 182 190 188 188 187 183 183 175 167 158 149 144 139 135 133 131 129 127 125 123 119 117 115 113 110 107 104 101 99 97 95 93 91 88 84 80 78 75 71 68 66 63 59 56 52 48
203 271 198 172 204 185 176 178 155 143 153 177 161 136 147 159 171 218 217 212 248 257 306 299 214 189 205 247 273 264 279 289 272 280 276 190 178 166 161 169 184 194 192 192 190 191 190 181 172 165 158 153 148 145 141 137 135 133 130 127 124 122 120 116 113 110 106 104 101 99 96 92 89 85 82 79 75 71 67 63 60 57 52 49 46 42
180 264 243 220 271 169 174 183 119 115 131 202 128 115 171 189 151 163 196 176 181 285 281 236 224 222 197 222 297 303 303 304 312 337 148 179 164 149 166 185 192 199 194 191 193 194 191 183 177 172 167 163 157 152 149 144 142 138 135 132 129 127 125 121 117 113 110 107 103 99 95 90 87 83 80 76 71 65 61 56 53 49 46 42 38 35
145 280 285 15 12 157 169 176 121 127 168 151 139 174 213 182 117 115 239 70 80 258 256 191 223 285 316 274 302 17 322 285 309 341 175 182 168 167 190 198 196 200 193 192 196 192 189 184 183 181 174 171 166 161 156 151 148 145 142 139 135 132 129 125 121 117 113 110 105 100 96 90 86 81 75 71 66 61 57 52 48 44 40 36 31 27
148 259 290 87 137 285 309 122 75 25 129 126 179 207 182 125 93 107 227 352 48 244 268 209 209 228 165 240 296 28 275 247 224 208 180 178 181 191 202 201 200 199 190 193 197 192 189 185 185 186 182 178 174 168 162 156 153 150 148 146 142 138 135 129 124 120 116 112 107 102 97 91 84 79 73 68 63 58 53 48 44 38 34 30 24 20
145 185 292 36 154 286 357 108 85 4 59 128 187 183 113 145 168 107 180 220 211 243 285 288 230 221 193 204 204 202 224 221 197 187 190 191 195 200 202 201 201 195 189 195 195 191 187 186 188 189 187 184 180 174 167 162 158 155 154 152 147 143 138 133 129 125 120 114 109 104 98 91 84 78 72 66 58 52 47 42 37 32 28 23 16 12
136 172 259 318 185 179 24 149 172 204 34 63 110 118 84 153 174 160 165 171 184 222 280 295 275 239 224 203 183 196 209 198 176 186 203 203 202 201 198 197 198 195 194 194 190 191 188 188 192 192 189 187 182 178 172 167 164 161 159 156 152 148 143 139 135 130 125 120 114 109 102 94 87 79 69 61 52 43 39 36 30 26 21 16 10 6
120 180 213 308 334 162 186 219 194 182 168 135 148 165 174 129 124 186 222 121 140 177 215 283 288 257 246 209 184 198 207 187 179 190 203 206 205 205 201 198 196 193 194 193 187 187 187 188 193 194 192 188 183 180 176 173 170 167 165 163 159 155 151 147 142 137 133 129 123 116 109 100 89 77 64 54 44 35 33 29 23 20 16 10 6 2
153 173 168 154 190 192 227 266 210 184 177 167 178 184 185 175 136 178 246 195 113 185 182 220 273 258 235 207 189 201 210 192 192 195 199 204 203 204 205 200 196 194 195 194 186 181 184 188 192 193 192 190 186 184 181 179 177 174 171 168 165 162 158 153 149 147 145 141 136 129 117 105 89 76 58 44 36 28 25 20 15 13 9 4 2 359
137 126 134 161 209 216 254 299 103 180 155 146 196 190 174 177 155 178 227 211 136 229 133 118 270 272 253 224 207 224 233 208 204 202 204 211 206 204 206 202 201 201 194 186 181 184 187 188 189 190 192 192 190 188 185 184 183 180 176 172 170 168 163 159 158 158 158 156 153 143 125 113 103 87 39 27 23 18 15 11 7 4 1 358 357 355
132 125 136 170 307 329 316 309 53 43 83 161 225 173 159 194 184 188 212 151 160 205 134 121 256 262 270 248 226 244 254 237 224 214 209 211 205 201 201 200 201 197 185 180 184 188 188 187 187 190 194 195 193 192 190 187 185 182 179 177 176 172 168 167 168 169 171 170 166 158 153 169 186 120 14 15 12 7 4 1 357 355 353 352 351 350
186 163 141 139 126 338 320 256 235 308 210 211 211 166 185 187 148 132 119 98 215 202 154 188 244 233 237 292 298 288 267 244 241 225 211 207 197 196 199 200 195 184 180 186 184 182 185 185 187 191 195 197 197 197 194 190 188 186 184 183 180 177 176 176 178 179 181 181 181 184 195 208 214 306 357 0 358 353 352 350 348 346 345 345 345 345
185 183 163 170 194 204 207 208 207 196 181 210 182 174 199 189 168 167 146 173 230 185 154 207 241 232 238 273 264 257 168 229 238 214 208 212 200 200 202 197 190 186 189 191 182 178 184 188 192 195 197 198 199 199 197 195 192 191 190 189 186 184 183 183 185 186 188 193 197 204 210 215 229 289 330 339 341 340 341 341 340 339 340 340 341 342
164 205 196 201 211 206 198 195 158 134 145 196 201 186 198 199 186 175 156 203 205 142 190 226 221 238 250 220 219 236 213 226 236 202 206 221 211 207 202 192 193 195 194 186 176 179 187 194 198 198 197 199 201 202 201 200 198 196 196 194 191 190 190 189 190 192 197 203 207 212 217 224 245 279 308 321 326 330 332 333 333 334 335 336 337 337
137 217 211 210 222 203 150 137 137 141 167 193 197 199 205 195 179 184 207 210 146 132 239 228 134 221 256 224 198 225 220 223 230 212 215 221 209 199 187 184 193 195 188 178 181 191 194 198 200 198 198 199 201 204 205 205 204 202 202 200 195 195 196 196 197 200 205 209 211 217 223 231 250 273 294 308 316 322 325 327 328 329 330 331 332 333
145 230 222 191 216 189 115 118 138 137 162 187 194 208 207 185 176 194 217 211 157 192 244 226 139 224 254 228 200 215 209 208 216 210 204 193 177 177 177 188 196 195 192 191 195 199 199 200 198 197 198 198 200 204 207 207 208 207 208 205 201 200 200 201 203 207 210 213 216 220 226 236 251 267 282 296 309 316 320 322 323 324 325 326 328 330
156 234 197 171 223 226 155 156 153 150 183 221 223 224 211 188 183 199 219 217 198 228 255 184 182 234 244 193 203 214 193 187 191 163 151 160 173 180 186 198 203 202 201 202 204 204 201 200 197 195 197 199 201 204 206 207 209 210 211 208 206 205 204 205 209 212 214 216 219 222 228 236 247 258 272 289 304 312 315 317 319 321 322 324 326 327
207 216 148 148 217 231 160 141 151 176 196 226 245 240 217 181 199 216 224 214 204 244 249 200 221 245 236 183 202 215 116 140 168 176 175 185 187 182 191 205 208 206 207 209 209 205 200 197 196 197 199 202 204 206 207 209 210 211 212 210 209 208 207 209 212 214 216 218 219 222 227 233 240 252 265 282 300 308 311 313 316 318 319 321 323 324
212 213 106 137 198 211 139 142 152 133 115 251 256 246 204 180 214 219 209 189 197 222 225 218 236 246 217 179 187 180 153 167 201 203 193 207 197 183 196 208 208 208 207 207 205 200 200 200 199 201 203 206 207 207 209 209 209 210 211 210 210 209 208 211 213 215 216 216 217 220 224 229 235 246 262 279 296 304 307 311 313 314 315 318 320 322
173 163 139 166 185 175 78 141 137 94 64 259 257 235 192 198 205 157 174 206 206 203 200 218 233 222 166 170 184 197 198 205 222 213 200 211 204 195 206 208 208 211 207 205 204 201 203 205 204 207 208 209 210 211 211 210 208 210 211 210 209 208 209 211 212 213 213 212 215 218 221 226 233 244 259 278 293 299 304 307 309 310 311 314 318 320
171 169 179 185 176 138 76 108 114 142 221 246 269 207 195 204 192 178 202 206 197 199 200 203 202 164 156 174 188 201 207 211 223 221 211 204 192 199 216 214 212 217 211 208 208 207 209 210 210 212 214 215 216 215 214 211 209 211 212 209 208 208 209 210 209 209 210 210 212 216 219 224 231 243 259 276 289 295 300 302 305 307 309 312 315 316
173 178 185 159 139 114 99 114 153 214 228 256 339 335 241 203 186 192 215 213 202 211 214 189 181 186 190 198 199 202 208 218 241 237 227 213 187 183 199 218 223 222 219 217 211 206 206 206 209 213 217 219 220 217 214 211 209 210 209 208 208 208 208 209 207 207 208 209 213 215 218 224 232 244 261 277 287 293 297 299 302 304 306 309 312 313
169 171 153 116 133 110 121 178 206 247 282 326 328 319 22 88 126 162 240 244 220 207 205 208 219 226 225 221 210 168 173 219 313 252 225 221 199 176 186 211 218 214 217 219 215 215 214 212 215 219 221 221 217 213 211 209 207 206 206 206 206 207 207 207 206 206 208 211 214 215 219 227 237 249 266 278 285 291 294 296 299 301 304 308 310 312
170 167 157 180 185 146 165 211 246 328 304 255 250 242 170 144 148 157 221 253 227 178 174 189 218 239 238 212 140 120 106 51 340 282 230 212 204 197 203 213 213 214 224 229 231 235 236 233 232 229 225 220 213 210 209 207 204 204 203 202 204 205 206 206 206 208 211 213 215 217 223 231 241 255 268 276 282 287 290 293 296 299 303 307 308 311
187 182 184 202 199 141 162 222 261 285 260 233 201 198 170 155 153 138 149 279 252 173 174 178 203 230 229 137 124 130 91 56 301 275 240 212 205 204 217 229 226 224 231 235 238 243 245 243 240 234 225 216 211 210 207 204 202 201 200 201 203 204 204 205 208 211 213 215 217 220 228 235 244 256 265 272 278 283 286 290 294 298 302 305 306 309
69 45 189 201 195 153 183 219 217 226 247 230 200 218 210 158 129 97 62 294 246 192 180 175 198 222 205 146 147 136 107 148 255 262 237 208 201 196 205 223 228 229 234 237 238 243 246 242 235 225 216 211 209 208 205 203 202 200 201 204 204 203 205 209 213 215 216 218 220 224 231 238 245 254 262 269 275 279 284 288 292 296 299 302 304 305
108 66 185 206 209 191 200 222 228 234 257 220 194 203 213 179 112 87 335 275 239 201 179 168 197 216 179 149 152 151 161 196 231 246 220 185 178 188 196 203 210 219 227 232 232 237 240 231 218 209 208 210 211 208 204 203 202 201 205 206 204 205 211 216 218 218 217 219 222 226 232 238 244 253 260 267 273 278 283 287 290 293 296 298 300 302
141 155 186 210 219 213 213 227 256 257 243 210 192 182 176 140 81 110 233 237 188 195 191 176 192 193 154 150 162 185 205 202 191 204 182 146 144 183 205 212 212 217 228 233 230 227 224 219 216 213 214 215 213 209 206 203 201 204 207 206 205 213 221 223 220 216 216 219 223 227 232 237 243 252 260 266 273 278 282 285 288 291 294 297 299 301
162 154 185 207 211 220 222 230 272 269 211 151 147 176 169 137 124 212 224 190 162 185 194 191 185 165 158 170 183 202 214 176 147 152 161 163 174 187 200 207 211 217 225 227 225 220 216 215 214 215 219 218 213 211 208 204 203 206 206 205 213 223 226 222 217 215 216 220 223 227 232 237 244 252 259 267 274 278 281 283 285 289 293 297 299 301
164 152 189 204 184 155 205 214 234 260 188 140 126 94 255 196 196 194 164 103 166 169 171 188 191 174 173 183 199 218 216 158 158 190 194 207 232 224 196 196 203 212 213 210 214 216 212 213 215 217 219 218 215 213 209 205 206 206 204 211 223 227 224 218 215 214 217 220 224 228 232 238 245 252 259 267 273 276 278 279 282 286 292 295 297 299
179 167 192 210 184 152 186 217 223 202 176 162 147 155 205 194 174 155 144 153 207 174 165 186 200 192 186 188 204 219 216 195 208 213 205 223 238 233 225 218 216 219 218 215 219 218 211 214 220 222 220 219 218 215 211 209 209 207 209 219 227 224 219 216 214 213 217 221 224 228 232 237 244 252 259 265 269 271 273 277 279 283 288 291 293 296
205 173 175 194 199 175 178 206 234 99 182 186 176 175 184 171 159 155 146 150 189 187 171 185 197 196 195 198 202 204 204 213 219 206 199 217 226 223 230 233 229 232 233 231 230 224 218 220 224 224 222 220 220 218 216 215 212 210 216 225 226 221 218 214 212 213 218 221 223 227 232 236 242 250 256 260 263 266 270 274 277 280 283 286 289 292
231 136 144 137 237 251 228 146 145 70 200 207 222 223 143 153 174 166 148 157 188 183 175 185 194 193 194 194 192 199 213 216 214 212 212 219 226 226 227 235 240 241 241 240 237 231 226 225 225 224 223 222 221 220 220 218 215 217 224 227 224 220 218 213 212 215 217 219 223 226 230 235 240 246 251 255 259 263 266 270 273 277 281 283 286 289
273 139 136 133 232 254 283 121 141 171 205 208 220 236 215 213 202 175 168 177 177 176 186 190 176 171 176 177 185 209 224 216 207 217 221 216 223 227 220 226 239 242 242 243 243 237 230 224 222 222 224 225 225 224 223 222 221 222 226 227 224 221 217 213 213 215 216 218 222 225 229 234 238 242 246 251 255 259 263 266 270 273 277 281 286 287
233 140 153 224 220 201 204 223 252 296 283 236 225 232 243 231 201 200 222 195 129 152 182 181 154 149 162 181 195 210 225 219 208 217 224 218 220 223 215 222 234 242 246 247 244 237 229 225 225 226 227 229 231 229 226 226 225 224 223 225 225 221 215 213 214 215 217 219 221 225 230 233 236 240 244 248 252 256 259 262 266 271 276 281 284 284
141 150 173 185 170 126 31 252 288 352 334 284 244 237 243 230 193 205 233 211 157 174 185 196 196 177 179 197 197 199 220 227 214 214 224 227 225 219 220 226 234 240 246 248 244 236 230 228 230 230 231 235 237 235 232 232 230 227 224 224 224 219 214 213 214 215 217 219 221 225 230 232 236 240 242 245 250 254 257 261 265 270 274 278 280 281
146 182 180 121 144 227 212 186 176 148 247 241 226 226 235 225 185 189 215 210 213 211 197 203 219 210 211 220 202 186 212 229 218 209 219 230 229 225 227 231 235 241 247 249 246 238 233 234 235 234 236 240 241 238 237 237 235 231 227 225 222 218 214 213 213 213 215 218 221 225 228 232 237 240 242 245 249 252 256 260 263 269 275 279 280 284
181 196 182 157 193 219 198 187 186 182 209 226 217 217 228 212 178 197 222 224 225 220 193 190 211 220 231 234 213 196 210 228 216 204 211 234 237 234 234 235 235 240 246 246 240 235 234 235 235 235 238 242 241 238 239 239 238 234 230 226 221 218 215 214 212 212 214 218 222 225 229 233 237 239 242 246 249 252 256 258 259 264 272 279 281 280